Date,TemperatureHighF,TemperatureAvgF,TemperatureLowF,DewpointHighF,DewpointAvgF,DewpointLowF,HumidityHigh,HumidityAvg,HumidityLow,PressureMaxIn,PressureMinIn,WindSpeedMaxMPH,WindSpeedAvgMPH,GustSpeedMaxMPH,PrecipitationSumIn
2013-1-1,49.1,46.3,43.5,45.1,37.3,28.0,86,72,52,30.17,29.99,4,0,0,0.00
2013-1-2,48.9,44.0,39.6,44.7,39.0,34.2,88,83,70,30.27,29.99,7,0,0,0.00
2013-1-3,49.8,39.3,26.8,38.2,33.4,22.8,85,80,61,30.34,30.22,0,0,0,0.00
2013-1-4,52.5,37.6,23.4,34.6,24.4,17.9,86,62,37,30.39,30.26,5,0,0,0.00
2013-1-5,54.7,37.3,23.5,30.5,23.9,16.5,78,60,39,30.46,30.32,3,0,0,0.00
2013-1-6,54.1,42.7,33.8,38.9,32.9,28.4,83,69,53,30.31,30.12,0,0,0,0.00
2013-1-7,55.4,38.5,27.7,35.3,28.3,23.1,86,68,44,30.51,30.24,7,0,0,0.00
2013-1-8,57.7,41.9,27.7,40.7,33.1,22.9,85,72,49,30.54,30.43,0,0,0,0.00
2013-1-9,70.5,49.9,34.2,52.2,40.8,30.0,89,72,51,30.52,30.43,0,0,0,0.00
2013-1-10,67.6,53.1,45.7,47.3,42.1,35.3,85,68,47,30.61,30.48,4,0,0,0.00
2013-1-11,52.7,47.5,41.5,47.4,40.2,30.9,87,77,53,30.51,30.22,1,0,0,0.00
2013-1-12,74.1,57.8,48.9,62.5,52.6,45.2,89,83,66,30.25,30.18,4,0,0,0.00
2013-1-13,77.7,63.7,54.0,63.8,56.2,50.8,90,78,56,30.22,30.13,7,0,0,0.00
2013-1-14,69.6,63.1,56.8,60.5,57.1,51.9,88,81,70,30.23,30.16,7,0,0,0.00
2013-1-15,57.9,45.6,43.7,53.4,42.1,40.4,89,88,85,30.31,30.12,9,1,0,0.00
2013-1-16,50.2,46.0,42.1,46.6,42.8,39.1,90,89,87,30.15,30.04,8,0,0,0.00
2013-1-17,50.2,45.6,32.5,47.0,42.6,29.6,90,89,87,30.22,29.97,22,2,0,0.00
2013-1-18,46.9,35.9,26.4,39.7,27.9,22.1,90,75,45,30.60,30.21,4,0,0,0.00
2013-1-19,57.0,37.9,22.8,39.3,27.6,19.2,89,69,40,30.56,30.22,3,0,0,0.00
2013-1-20,65.1,46.2,33.6,39.8,32.7,26.5,80,62,36,30.22,30.06,7,0,0,0.00
2013-1-21,62.1,44.1,28.6,41.3,28.4,18.4,88,58,34,30.16,29.94,6,0,0,0.00
2013-1-22,41.5,33.1,21.6,18.1,9.3,3.3,47,37,25,30.35,30.02,8,0,0,0.00
2013-1-23,45.9,28.6,15.4,19.4,11.5,3.6,71,51,33,30.44,30.12,3,0,0,0.00
2013-1-24,38.1,30.8,21.4,22.2,13.2,3.8,68,49,31,30.58,30.02,13,1,0,0.00
2013-1-25,27.7,24.5,18.0,22.5,12.9,3.1,82,62,43,30.58,30.17,0,0,0,0.00
2013-1-26,32.7,27.9,27.0,27.8,23.5,22.1,84,83,82,30.31,30.14,0,0,0,0.00
2013-1-27,45.3,31.6,20.1,29.3,23.3,16.0,87,73,51,30.67,30.48,5,0,0,0.00
2013-1-28,52.9,42.9,29.8,43.7,34.3,23.8,81,72,56,30.57,30.30,3,0,0,0.00
2013-1-29,75.6,58.5,45.0,57.3,49.5,41.0,88,73,52,30.31,30.14,7,0,0,0.00
2013-1-30,72.3,66.3,59.4,62.7,59.3,53.4,86,78,70,30.15,29.46,20,2,0,0.00
2013-1-31,64.0,46.8,29.7,58.8,31.4,19.4,83,57,34,30.08,29.53,10,1,0,0.00
2013-2-1,41.9,34.4,24.6,26.7,15.2,6.0,69,47,29,30.45,29.94,17,1,0,0.00
2013-2-2,48.7,34.7,17.2,30.0,14.4,5.8,66,45,31,30.46,30.09,7,0,0,0.00
2013-2-3,52.2,41.9,32.2,39.2,27.7,20.6,81,58,42,30.09,29.92,6,0,0,0.00
2013-2-4,56.3,38.5,23.9,29.3,22.6,16.5,77,55,34,30.21,30.06,4,0,0,0.00
2013-2-5,63.0,46.5,35.8,38.1,31.1,23.6,75,56,38,30.08,29.95,5,0,0,0.00
2013-2-6,64.9,44.8,29.1,40.2,28.5,24.1,86,57,27,30.36,30.04,7,0,0,0.00
2013-2-7,50.2,41.8,34.7,38.8,34.0,28.7,87,74,60,30.40,30.07,9,0,0,0.00
2013-2-8,59.5,45.8,38.8,46.3,37.8,27.0,88,75,54,30.12,29.88,11,1,0,0.00
2013-2-9,63.7,39.1,23.7,30.6,22.8,16.6,77,55,25,30.43,30.11,8,0,0,0.20
2013-2-10,70.7,41.1,15.8,37.3,23.3,-7.8,80,54,24,30.56,30.28,57,0,0,0.02
2013-2-11,62.1,55.3,44.6,57.1,50.6,37.3,88,84,76,30.28,29.99,6,0,0,0.08
2013-2-12,63.3,54.2,46.8,37.3,32.9,29.0,68,46,32,30.16,29.98,7,0,0,0.00
2013-2-13,47.5,45.3,41.2,43.7,40.5,33.3,89,84,66,30.03,29.69,7,0,0,0.26
2013-2-14,55.0,39.9,28.2,35.2,30.4,24.5,88,71,45,30.14,29.90,7,0,0,0.02
2013-2-15,66.7,43.2,26.8,42.2,31.4,23.4,88,67,33,30.16,30.00,8,0,0,0.00
2013-2-16,45.3,36.2,30.6,34.2,30.1,26.0,87,79,62,30.04,29.90,8,0,0,0.26
2013-2-17,40.5,29.9,19.9,26.1,14.3,8.5,84,54,30,30.34,29.98,16,1,0,0.14
2013-2-18,55.9,34.2,14.9,24.9,18.1,10.1,83,56,30,30.48,30.32,5,0,0,0.04
2013-2-19,50.9,43.2,32.2,46.7,35.2,22.4,87,74,56,30.32,29.92,7,0,0,0.14
2013-2-20,56.5,39.7,25.3,99.9,21.4,16.1,87,50,25,30.21,30.03,57,0,0,0.02
2013-2-21,58.3,39.9,21.6,24.3,19.9,15.4,79,48,25,30.34,30.18,9,0,0,0.00
2013-2-22,41.5,35.8,31.8,32.3,28.5,20.5,88,76,44,30.43,30.22,7,0,0,0.35
2013-2-23,43.0,40.0,35.4,40.0,36.8,32.1,89,89,88,30.18,29.88,7,0,0,0.90
2013-2-24,65.8,48.9,34.2,47.3,36.7,27.5,90,67,30,30.11,29.86,8,0,0,0.04
2013-2-25,42.6,36.6,30.9,28.9,23.4,20.6,82,59,46,30.30,30.11,8,0,0,0.00
2013-2-26,55.6,40.4,34.2,52.4,33.3,23.9,89,76,61,30.22,29.64,9,0,0,0.98
2013-2-27,58.3,45.6,42.6,99.9,40.6,35.1,86,73,46,29.85,29.76,7,0,0,0.77
2013-2-28,48.2,39.2,30.4,99.9,29.9,23.4,87,56,44,29.92,29.80,57,0,0,0.00
2013-3-1,51.6,38.6,25.3,32.8,26.2,21.0,86,63,44,29.99,29.89,6,0,0,0.00
2013-3-2,51.3,37.1,25.0,31.4,24.2,17.2,85,62,40,29.99,29.87,6,0,0,0.00
2013-3-3,51.3,35.6,23.5,24.5,19.4,14.5,78,53,34,30.04,29.91,7,0,0,0.00
2013-3-4,54.7,35.6,22.6,21.7,16.5,10.3,70,48,26,30.17,30.04,7,0,0,0.00
2013-3-5,50.9,41.3,30.6,40.9,32.6,21.6,87,72,44,30.15,29.65,7,0,0,0.37
2013-3-6,46.2,42.3,37.2,31.9,29.2,26.2,81,60,51,30.09,29.69,17,1,0,0.31
2013-3-7,54.1,41.6,28.0,32.2,27.4,22.0,82,58,42,30.30,30.09,7,0,0,0.06
2013-3-8,68.9,42.3,25.2,29.6,24.7,19.9,82,53,31,30.35,30.21,9,1,0,0.00
2013-3-9,66.9,44.7,27.7,32.5,27.5,21.7,80,55,27,30.40,30.30,5,0,0,0.00
2013-3-10,72.0,49.2,29.1,33.8,28.6,24.6,84,51,23,30.40,30.28,8,0,0,0.00
2013-3-11,71.2,54.7,36.5,50.7,41.8,25.5,79,63,42,30.32,30.02,57,0,0,0.00
2013-3-12,69.1,59.1,28.4,60.8,51.2,19.2,88,76,50,30.02,29.84,6,0,0,0.80
2013-3-13,57.9,46.2,31.5,36.2,27.5,-6.1,84,50,30,30.20,30.01,8,0,0,0.04
2013-3-14,57.7,39.6,27.3,24.5,18.9,15.2,60,45,26,30.31,30.17,6,0,0,0.00
2013-3-15,64.9,45.0,23.9,35.9,26.7,16.6,78,51,33,30.25,29.97,8,0,0,0.00
2013-3-16,80.4,61.0,45.3,50.9,42.9,32.4,68,53,35,29.97,29.73,8,0,0,0.00
2013-3-17,58.1,49.9,39.6,49.3,42.1,34.9,87,75,62,30.25,29.91,8,0,0,0.00
2013-3-18,42.6,39.7,37.2,39.0,36.1,33.7,89,87,84,30.27,29.98,7,0,0,0.16
2013-3-19,69.6,52.6,39.6,99.9,34.1,14.5,89,56,23,30.09,29.87,8,0,0,0.20
2013-3-20,58.8,45.8,32.2,24.6,18.5,11.3,69,35,24,30.18,29.86,8,0,0,0.00
2013-3-21,46.6,39.1,30.0,29.3,20.0,10.4,71,48,33,30.04,29.79,7,0,0,0.00
2013-3-22,55.9,36.2,18.3,21.8,16.1,9.8,75,47,26,30.15,30.02,4,0,0,0.00
2013-3-23,60.1,43.0,30.0,31.6,26.7,20.5,77,55,34,30.12,29.98,1,0,0,0.00
2013-3-24,42.1,37.3,31.8,34.6,31.2,26.1,87,79,64,30.01,29.65,7,0,0,0.77
2013-3-25,50.2,40.4,34.5,36.3,29.0,22.0,88,67,41,29.88,29.62,7,0,0,0.61
2013-3-26,49.6,40.5,30.9,99.9,25.4,21.8,72,54,44,30.17,29.88,4,0,0,0.02
2013-3-27,55.8,42.3,30.2,28.1,23.9,19.7,73,50,32,30.29,30.17,8,0,0,0.00
2013-3-28,59.7,42.1,24.1,29.5,24.0,18.5,82,52,30,30.36,30.21,7,0,0,0.00
2013-3-29,61.7,43.2,25.0,32.4,26.3,20.3,83,56,29,30.40,30.25,5,0,0,0.00
2013-3-30,69.8,52.0,35.2,41.3,34.6,28.0,79,55,31,30.32,30.15,2,0,0,0.00
2013-3-31,69.6,57.2,47.5,55.5,48.3,40.6,87,73,58,30.18,29.89,8,0,0,0.71
2013-4-1,75.9,64.2,50.9,52.3,43.5,34.3,89,49,32,30.06,29.89,57,0,0,0.41
2013-4-2,64.0,48.6,31.3,34.0,28.5,24.4,81,48,27,30.23,30.06,7,0,0,0.06
2013-4-3,63.7,48.4,37.9,29.5,25.4,21.3,65,43,25,30.37,30.20,8,0,0,0.00
2013-4-4,49.8,42.2,38.8,35.7,29.7,22.0,87,63,44,30.43,29.98,7,0,0,0.73
2013-4-5,68.4,48.0,38.8,48.1,40.2,35.5,88,76,44,30.08,29.93,8,0,0,0.53
2013-4-6,69.6,52.7,36.9,37.3,33.0,26.2,87,51,30,30.34,30.08,7,0,0,0.00
2013-4-7,74.3,54.9,33.3,46.0,38.2,28.3,84,56,35,30.36,30.18,7,0,0,0.00
2013-4-8,81.7,65.6,51.1,57.0,51.1,44.8,87,62,39,30.25,30.13,7,0,0,0.00
2013-4-9,87.4,70.9,55.2,60.2,55.6,50.6,87,61,37,30.27,30.14,7,0,0,0.00
2013-4-10,89.4,74.2,61.0,62.7,58.0,53.7,82,59,37,30.19,30.02,9,0,0,0.00
2013-4-11,83.1,71.2,61.0,63.8,58.8,54.7,84,66,46,30.09,29.88,8,0,0,0.00
2013-4-12,83.8,71.8,61.5,99.9,61.6,44.5,88,71,47,29.90,29.69,12,0,0,1.28
2013-4-13,78.6,61.8,46.9,99.9,42.9,37.4,76,50,30,30.09,29.85,57,1,0,0.43
2013-4-14,83.1,63.0,41.7,52.3,44.0,37.7,88,56,28,30.18,30.09,2,0,0,0.00
2013-4-15,73.0,64.4,57.7,56.1,53.9,49.9,84,69,54,30.30,30.10,8,0,0,0.02
2013-4-16,81.0,64.9,56.1,61.1,56.1,51.9,89,75,48,30.38,30.28,0,0,0,0.00
2013-4-17,85.6,69.3,55.9,65.1,59.3,51.9,89,73,48,30.31,30.19,7,0,0,0.00
2013-4-18,83.3,70.0,58.5,62.2,58.3,53.6,87,68,47,30.28,30.12,8,0,0,0.00
2013-4-19,84.9,71.2,64.6,68.0,62.8,58.6,88,76,53,30.13,29.80,13,1,0,0.57
2013-4-20,68.5,55.5,41.9,61.2,40.6,33.8,88,60,33,30.34,29.90,11,0,0,0.67
2013-4-21,63.7,50.5,38.8,42.3,37.5,34.9,87,63,42,30.56,30.34,8,0,0,0.06
2013-4-22,63.0,49.4,34.9,42.7,37.0,30.1,84,64,44,30.55,30.33,8,0,0,0.06
2013-4-23,71.4,54.4,46.6,51.2,45.0,41.8,86,72,47,30.34,30.19,8,0,0,0.04
2013-4-24,79.2,61.6,44.4,56.7,50.6,40.8,89,70,44,30.22,30.05,7,0,0,0.04
2013-4-25,75.7,60.8,47.1,54.4,45.7,37.9,83,59,37,30.35,30.08,8,0,0,0.00
2013-4-26,75.0,58.6,46.2,49.7,42.7,37.5,89,61,29,30.50,30.34,8,0,0,0.00
2013-4-27,75.7,62.3,50.4,50.0,45.6,40.9,78,57,34,30.45,30.33,2,0,0,0.00
2013-4-28,61.5,57.8,54.5,99.9,48.7,41.5,88,69,58,30.34,30.18,0,0,0,0.63
2013-4-29,77.9,65.0,54.5,61.9,58.5,51.0,90,80,58,30.18,30.04,0,0,0,1.61
2013-4-30,68.4,60.2,52.9,58.8,55.4,49.1,90,84,71,30.25,30.08,8,0,0,0.08
2013-5-1,61.2,58.0,55.8,56.5,54.0,52.2,89,86,84,30.40,30.23,10,0,0,0.02
2013-5-2,64.0,57.9,51.8,56.3,53.0,48.0,88,84,75,30.40,30.33,8,0,0,0.02
2013-5-3,71.4,57.3,46.9,54.2,47.8,41.3,89,72,50,30.34,30.24,10,0,0,0.00
2013-5-4,65.1,55.2,48.6,51.8,46.5,41.8,83,73,59,30.29,30.15,9,1,0,0.00
2013-5-5,59.4,54.8,49.3,53.4,48.8,43.6,84,80,75,30.18,30.06,10,1,0,0.00
2013-5-6,68.4,59.5,55.2,62.3,55.8,51.5,90,88,81,30.08,29.91,7,0,0,2.10
2013-5-7,74.8,59.3,48.2,59.4,51.2,45.5,90,77,43,30.03,29.93,4,0,0,0.18
2013-5-8,74.3,60.7,49.6,57.7,53.1,45.6,90,77,55,30.08,29.99,2,0,0,0.14
2013-5-9,84.0,66.0,53.2,61.0,55.7,49.7,90,72,42,30.14,30.05,3,0,0,0.14
2013-5-10,87.4,70.7,52.7,63.0,57.6,49.5,89,66,41,30.14,30.02,8,0,0,0.02
2013-5-11,82.6,72.2,64.9,64.7,61.0,56.3,88,69,49,30.04,29.88,8,0,0,0.18
2013-5-12,74.5,65.1,48.0,61.8,50.3,36.4,89,62,34,30.11,29.87,11,0,0,0.18
2013-5-13,68.9,54.7,40.8,41.8,37.6,34.9,83,56,32,30.26,30.09,9,0,0,0.00
2013-5-14,72.0,55.2,36.0,45.1,39.3,31.6,87,59,34,30.33,30.15,7,0,0,0.00
2013-5-15,90.0,70.4,54.5,63.5,53.8,41.8,71,57,41,30.15,29.98,8,0,0,0.00
2013-5-16,86.7,74.1,59.2,63.6,59.2,54.7,86,62,42,30.07,29.98,8,0,0,0.00
2013-5-17,91.2,73.9,57.7,65.3,60.3,53.7,89,65,40,30.17,30.07,5,0,0,0.00
2013-5-18,81.5,70.0,60.6,67.8,63.1,57.1,88,79,61,30.25,30.15,1,0,0,0.12
2013-5-19,81.3,71.6,64.0,99.9,66.2,60.8,90,80,62,30.24,30.14,4,0,0,0.71
2013-5-20,76.3,71.1,66.7,99.9,67.9,63.7,90,82,78,30.19,30.12,0,0,0,0.92
2013-5-21,88.7,74.0,67.8,72.0,67.0,64.3,90,80,55,30.14,30.03,4,0,0,0.04
2013-5-22,88.0,75.0,68.7,69.3,66.0,63.2,88,75,54,30.13,29.99,8,0,0,0.00
2013-5-23,84.9,74.1,68.5,68.5,66.0,64.0,88,77,56,30.04,29.90,4,0,0,0.00
2013-5-24,71.2,63.8,47.3,65.5,51.5,37.6,89,67,36,30.26,29.90,13,0,0,0.10
2013-5-25,76.8,56.6,38.7,47.0,40.6,34.5,87,59,31,30.34,30.21,6,0,0,0.02
2013-5-26,77.7,59.3,45.0,49.2,44.7,38.7,84,62,35,30.35,30.25,0,0,0,0.00
2013-5-27,83.7,65.1,47.1,57.9,51.2,43.5,89,64,37,30.36,30.24,5,0,0,0.00
2013-5-28,85.5,72.9,59.7,66.6,60.8,52.3,87,67,52,30.34,30.22,6,0,0,0.00
2013-5-29,87.6,74.4,60.4,65.5,61.8,56.4,88,66,46,30.33,30.24,7,0,0,0.00
2013-5-30,73.8,65.6,61.0,66.4,60.0,57.1,89,82,72,30.36,30.29,1,0,0,0.00
2013-5-31,90.0,82.1,72.0,68.1,65.4,63.6,76,58,45,30.32,30.18,7,0,0,0.00
2013-6-1,91.0,78.2,66.7,68.0,64.9,61.4,88,66,43,30.23,30.11,8,0,0,0.00
2013-6-2,88.2,77.6,67.6,67.8,65.2,62.0,85,67,49,30.14,29.99,8,0,0,0.06
2013-6-3,87.1,74.2,65.5,71.6,67.6,62.1,89,81,57,30.05,29.92,3,0,0,0.88
2013-6-4,80.1,69.9,63.3,65.9,62.3,59.8,90,78,57,30.19,30.02,8,0,0,0.63
2013-6-5,85.3,72.3,62.4,61.8,59.3,55.5,88,66,43,30.23,30.11,2,0,0,0.02
2013-6-6,77.9,70.5,65.5,69.7,63.9,55.8,89,80,64,30.14,29.91,4,0,0,0.35
2013-6-7,75.4,69.7,68.2,99.9,67.1,65.0,90,90,88,29.94,29.59,9,0,0,4.12
2013-6-8,85.8,73.3,66.6,70.1,66.2,63.2,91,80,55,30.18,29.90,8,0,0,0.06
2013-6-9,89.4,76.5,64.8,73.0,67.7,61.8,90,76,53,30.25,30.14,0,0,0,0.02
2013-6-10,84.7,75.0,70.9,75.1,69.7,66.1,89,84,70,30.19,29.99,11,0,0,0.29
2013-6-11,87.1,78.7,67.3,68.6,65.5,62.6,87,66,48,30.04,29.98,17,0,0,0.04
2013-6-12,91.6,77.2,61.9,73.5,67.5,59.0,90,74,52,30.06,29.95,4,0,0,0.00
2013-6-13,95.5,79.5,67.8,76.0,69.6,61.0,89,74,45,29.96,29.68,12,0,0,0.00
2013-6-14,81.0,70.2,57.2,64.1,57.9,53.2,88,67,45,30.10,29.81,8,0,0,0.00
2013-6-15,86.0,70.6,55.6,64.5,58.8,52.4,90,69,44,30.20,30.09,5,0,0,0.00
2013-6-16,88.2,75.8,63.1,68.9,62.5,53.6,86,64,51,30.21,30.09,8,0,0,0.00
2013-6-17,89.1,77.5,70.9,72.1,66.6,62.7,80,69,53,30.13,30.02,3,0,0,0.00
2013-6-18,85.6,74.3,68.7,72.1,67.8,64.7,89,81,64,30.06,29.83,6,0,0,0.00
2013-6-19,82.2,72.6,63.1,68.7,64.3,59.9,90,77,59,30.21,29.96,3,0,0,0.00
2013-6-20,83.1,72.0,62.2,63.8,60.8,52.9,89,70,50,30.33,30.21,7,0,0,0.00
2013-6-21,85.3,70.7,54.5,64.2,57.2,50.1,87,64,42,30.35,30.27,10,0,0,0.00
2013-6-22,85.3,73.5,68.4,70.4,66.5,63.3,88,79,60,30.30,30.20,8,0,0,0.00
2013-6-23,88.7,76.0,65.8,73.8,68.2,62.6,90,78,59,30.30,30.21,5,0,0,0.00
2013-6-24,88.3,78.3,71.2,74.1,70.3,66.8,88,77,60,30.30,30.18,6,0,0,0.00
2013-6-25,91.6,77.4,69.6,77.9,69.2,65.2,88,77,57,30.22,30.10,7,0,0,0.00
2013-6-26,91.6,77.5,68.5,74.2,68.8,62.8,89,76,54,30.14,29.98,8,0,0,0.00
2013-6-27,91.2,77.6,67.1,75.2,69.5,63.7,90,77,57,30.01,29.80,7,0,0,0.00
2013-6-28,92.1,79.2,70.3,73.3,69.8,64.4,88,75,51,29.84,29.68,10,0,0,0.00
2013-6-29,88.3,75.9,66.9,72.9,68.9,63.9,90,80,60,29.82,29.69,2,0,0,0.00
2013-6-30,88.9,76.0,69.1,75.4,69.7,63.5,90,82,62,29.96,29.80,2,0,0,0.00
2013-7-1,84.7,75.4,69.1,74.7,69.8,66.0,91,83,69,30.09,29.94,6,0,0,0.00
2013-7-2,78.1,73.5,71.2,71.6,69.4,67.2,90,87,80,30.28,30.09,6,0,0,0.00
2013-7-3,87.6,78.1,72.5,75.7,71.6,68.3,90,81,65,30.35,30.25,5,0,0,0.00
2013-7-4,91.8,80.1,72.1,75.0,70.6,67.7,90,74,50,30.38,30.27,4,0,0,0.00
2013-7-5,93.0,80.4,71.2,74.8,70.7,67.0,89,74,53,30.38,30.26,6,0,0,0.00
2013-7-6,90.3,80.1,72.0,73.9,70.8,66.9,88,74,57,30.35,30.21,6,0,0,0.00
2013-7-7,90.1,78.6,67.6,74.5,69.9,64.1,90,76,58,30.28,30.15,11,0,0,0.22
2013-7-8,91.9,79.0,71.8,74.4,70.4,66.7,88,76,51,30.27,30.18,7,0,0,0.02
2013-7-9,90.7,77.8,70.2,76.8,70.8,66.1,89,80,60,30.26,30.15,9,0,0,0.02
2013-7-10,91.2,79.0,72.5,75.1,71.2,66.7,87,77,58,30.20,30.04,12,0,0,0.00
2013-7-11,84.4,75.3,71.8,73.0,70.0,67.9,89,84,68,30.08,29.97,6,0,0,0.00
2013-7-12,77.9,72.8,70.3,70.2,68.0,65.9,90,85,76,30.13,29.96,7,0,0,0.00
2013-7-13,80.6,73.6,69.3,73.8,69.1,65.4,89,86,78,30.28,30.11,7,0,0,0.10
2013-7-14,90.1,78.7,69.1,75.3,70.4,65.7,90,77,55,30.39,30.27,7,0,0,0.02
2013-7-15,91.0,78.6,67.8,75.6,69.2,64.1,89,75,52,30.42,30.34,6,0,0,0.00
2013-7-16,96.3,80.9,66.7,75.4,70.0,63.4,89,72,47,30.37,30.28,4,0,0,0.00
2013-7-17,94.6,83.3,73.6,76.6,72.2,69.5,88,71,48,30.32,30.21,8,0,0,0.00
2013-7-18,95.5,83.2,72.5,78.1,73.1,68.8,88,73,52,30.24,30.13,2,0,0,0.00
2013-7-19,93.9,82.1,73.8,76.6,72.3,68.8,88,73,53,30.20,30.08,8,0,0,0.00
2013-7-20,91.2,80.6,74.5,75.6,71.6,69.4,84,75,58,30.13,30.02,8,0,0,0.00
2013-7-21,89.6,78.8,73.2,74.4,70.8,68.1,85,77,58,30.09,29.99,7,0,0,0.04
2013-7-22,91.0,79.6,70.2,74.5,70.8,66.8,89,75,54,30.05,29.92,7,0,0,0.04
2013-7-23,92.5,81.8,73.9,73.3,70.5,68.3,84,70,50,29.94,29.82,7,0,0,0.00
2013-7-24,96.4,79.8,68.4,73.8,69.6,65.0,89,73,46,29.94,29.83,4,0,0,0.00
2013-7-25,81.7,73.1,64.9,69.6,66.3,61.0,88,80,63,30.13,29.91,8,0,0,0.00
2013-7-26,87.8,73.0,60.3,67.3,62.3,56.9,89,72,47,30.20,30.12,5,0,0,0.00
2013-7-27,88.9,74.4,65.1,71.6,65.7,61.2,89,76,49,30.15,30.03,8,0,0,0.00
2013-7-28,89.4,77.3,68.5,72.7,68.4,65.1,89,76,52,30.11,30.02,6,0,0,0.00
2013-7-29,88.5,75.8,67.3,70.8,66.4,62.4,89,74,50,30.24,30.09,6,0,0,0.00
2013-7-30,89.2,74.8,60.4,69.4,64.1,56.7,88,71,46,30.32,30.22,5,0,0,0.00
2013-7-31,84.6,77.0,70.2,73.3,69.1,65.6,88,77,63,30.24,30.10,8,0,0,0.00
2013-8-1,88.7,74.9,69.4,74.0,68.9,65.0,89,82,61,30.13,29.95,6,0,0,0.00
2013-8-2,91.6,76.7,66.4,72.7,67.8,62.8,90,76,49,30.12,29.99,0,0,0,0.00
2013-8-3,91.2,76.8,69.3,76.0,69.9,65.2,89,80,54,30.11,30.01,7,0,0,0.00
2013-8-4,87.3,74.6,64.2,71.2,65.4,60.0,90,75,45,30.13,29.98,7,0,0,0.00
2013-8-5,84.7,73.1,62.4,66.5,62.6,58.7,89,72,48,30.19,30.10,7,0,0,0.00
2013-8-6,84.0,74.5,66.6,69.5,65.1,61.7,88,73,57,30.16,30.09,8,0,0,0.00
2013-8-7,88.9,77.2,66.0,71.2,67.5,62.0,88,74,53,30.19,30.12,7,0,0,0.00
2013-8-8,93.0,79.7,69.1,73.5,69.7,65.3,88,73,52,30.16,30.09,8,0,0,0.00
2013-8-9,93.4,81.6,72.3,75.5,72.0,68.1,87,74,55,30.15,30.07,8,0,0,0.00
2013-8-10,96.4,80.6,72.7,77.5,72.4,66.4,88,77,53,30.20,30.10,6,0,0,0.00
2013-8-11,93.6,80.4,70.9,75.5,71.6,67.5,90,76,52,30.21,30.10,0,0,0,0.00
2013-8-12,93.9,81.3,70.9,76.2,71.2,67.5,89,73,49,30.14,30.02,0,0,0,0.00
2013-8-13,91.2,78.0,69.6,78.5,71.4,65.9,89,81,60,30.08,29.87,6,0,0,0.02
2013-8-14,77.5,70.6,58.8,69.6,63.5,55.0,89,79,61,30.18,29.91,7,0,0,0.00
2013-8-15,78.4,64.9,56.8,60.7,56.8,53.3,89,77,51,30.25,30.16,7,0,0,0.00
2013-8-16,71.8,64.5,57.0,61.2,58.1,53.3,89,80,67,30.27,30.18,2,0,0,0.00
2013-8-17,72.1,66.7,61.0,68.1,62.5,57.1,89,86,82,30.27,30.20,5,0,0,0.00
2013-8-18,83.1,73.0,66.7,70.6,66.5,62.4,90,81,63,30.29,30.20,8,0,0,0.00
2013-8-19,76.8,69.4,65.8,70.0,65.2,62.0,89,87,79,30.29,30.18,0,0,0,0.00
2013-8-20,86.5,74.7,66.4,73.4,68.5,63.3,90,82,65,30.27,30.19,0,0,0,0.00
2013-8-21,91.9,76.9,70.2,76.5,70.6,66.4,90,82,59,30.32,30.19,0,0,0,0.00
2013-8-22,91.9,78.4,68.4,74.1,69.3,65.0,90,76,49,30.24,30.08,1,0,0,0.00
2013-8-23,90.0,76.7,66.6,75.3,68.6,63.2,90,77,54,30.15,30.02,7,0,0,0.00
2013-8-24,85.3,72.4,63.1,63.8,61.0,58.5,87,70,43,30.39,30.15,9,1,0,0.02
2013-8-25,81.9,68.6,58.1,65.8,58.4,53.9,89,72,45,30.48,30.38,9,0,0,0.02
2013-8-26,87.4,68.2,52.3,64.1,57.2,48.8,89,71,41,30.41,30.20,7,0,0,0.00
2013-8-27,92.5,72.9,59.4,71.1,62.8,55.5,88,73,49,30.22,30.06,3,0,0,0.00